Angleton, TX

4:34 AM CST on December 16, 2019 (GMT -0600)
Brazoria County

Weather History for KLBX - June, 2019

Change the Weather History Date:

Monday, June 10, 2019

  Actual Average Record
Temperature  
Mean Temperature 83 °F -  
Max Temperature 93 °F 86 °F 93 °F (2019)
Min Temperature 75 °F 71 °F 66 °F (2006)
Cooling Degree Days 18    
Growing Degree Days 33 (Base 50)    
Moisture  
Dew Point 74 °F    
Average Humidity 75    
Maximum Humidity 94    
Minimum Humidity 52    
Precipitation  
Precipitation 0.17 in - - ()
Sea Level Pressure  
Sea Level Pressure 30.06 in    
Wind  
Wind Speed 6 mph (North)    
Max Wind Speed 13 mph    
Max Gust Speed 18 mph    
Visibility 9 miles    
Events Rain    
Averages and records for this station are not official NWS values.
T = Trace of Precipitation, MM = Missing Value Source: NWS Daily Summary

Daily Weather History Graph

Daily Weather History Graph

Search for Another Location

Airport or City:

Astronomy

Jun. 10, 2019 Rise Set
Actual Time 6:22 AM CDT 8:20 PM CDT
Civil Twilight 5:55 AM CDT 8:47 PM CDT
Nautical Twilight 5:22 AM CDT 9:20 PM CDT
Astronomical Twilight 4:47 AM CDT 9:55 PM CDT
Moon 1:49 PM CDT (6/10) 1:55 AM CDT (6/10)
Length of Visible Light 14h 52m
Length of Day
13h 58m
First Quarter, 55% of the Moon is Illuminated
Jun 10
First Quarter
Jun 17
Full
Jun 25
Last Quarter
Jul 2
New
Jul 9
First Quarter

Hourly Weather History & Observations

Time (CDT) Temp. Heat Index Dew Point Humidity Pressure Visibility Wind Dir Wind Speed Gust Speed Precip Events Conditions
12:53 AM 81.0 °F 88.6 °F 78.1 °F 91% 29.97 in 9.0 mi Calm Calm - N/A   Clear
1:53 AM 80.1 °F 85.8 °F 77.0 °F 90% 29.96 in 9.0 mi NNW 3.5 mph - N/A   Scattered Clouds
2:53 AM 81.0 °F 88.6 °F 78.1 °F 91% 30.00 in 9.0 mi NNW 3.5 mph - N/A   Overcast
3:53 AM 80.1 °F 85.8 °F 77.0 °F 90% 30.00 in 7.0 mi Calm Calm - N/A   Clear
4:30 AM 79.0 °F - 77.0 °F 94% 30.02 in 1.8 mi North 12.7 mph - 0.15 in Rain Heavy Rain
4:38 AM 79.0 °F - 75.9 °F 90% 30.03 in 3.0 mi NNW 6.9 mph - 0.17 in Rain Light Rain
4:53 AM 79.0 °F - 75.0 °F 88% 30.03 in 10.0 mi North 5.8 mph - 0.17 in   Mostly Cloudy
5:27 AM 78.1 °F - 73.9 °F 87% 30.04 in 10.0 mi North 6.9 mph - N/A   Mostly Cloudy
5:53 AM 77.0 °F - 73.0 °F 88% 30.04 in 10.0 mi North 6.9 mph - N/A   Clear
6:53 AM 75.9 °F - 73.0 °F 91% 30.06 in 8.0 mi North 5.8 mph - N/A   Mostly Cloudy
7:53 AM 78.1 °F - 73.0 °F 84% 30.08 in 9.0 mi North 8.1 mph - N/A   Clear
8:53 AM 80.1 °F 84.2 °F 73.0 °F 79% 30.10 in 10.0 mi North 8.1 mph - N/A   Clear
9:53 AM 84.0 °F 90.2 °F 73.0 °F 69% 30.11 in 10.0 mi NNE 9.2 mph - N/A   Clear
10:53 AM 86.0 °F 93.0 °F 73.0 °F 65% 30.11 in 10.0 mi NNE 12.7 mph - N/A   Partly Cloudy
11:53 AM 86.0 °F 93.0 °F 73.0 °F 65% 30.11 in 10.0 mi North 9.2 mph - N/A   Scattered Clouds
12:53 PM 90.0 °F 97.9 °F 73.0 °F 57% 30.11 in 10.0 mi North 12.7 mph 18.4 mph N/A   Partly Cloudy
1:53 PM 89.1 °F 97.0 °F 73.0 °F 59% 30.09 in 10.0 mi NNE 11.5 mph - N/A   Partly Cloudy
2:53 PM 90.0 °F 96.9 °F 72.0 °F 55% 30.09 in 10.0 mi NNE 9.2 mph - N/A   Scattered Clouds
3:53 PM 91.0 °F 97.6 °F 71.1 °F 52% 30.07 in 10.0 mi NNE 10.4 mph - N/A   Clear
4:53 PM 91.9 °F 99.5 °F 72.0 °F 52% 30.06 in 10.0 mi North 8.1 mph - N/A   Partly Cloudy
5:53 PM 91.0 °F 97.6 °F 71.1 °F 52% 30.05 in 10.0 mi North 10.4 mph - N/A   Partly Cloudy
6:53 PM 90.0 °F 96.4 °F 71.1 °F 54% 30.05 in 10.0 mi North 8.1 mph - N/A   Clear
7:53 PM 84.9 °F 91.4 °F 73.0 °F 67% 30.06 in 10.0 mi NNW 3.5 mph - N/A   Mostly Cloudy
8:53 PM 82.0 °F 88.6 °F 75.0 °F 79% 30.07 in 10.0 mi North 3.5 mph - N/A   Mostly Cloudy
9:53 PM 81.0 °F 85.2 °F 72.0 °F 74% 30.09 in 10.0 mi North 8.1 mph - N/A   Partly Cloudy
10:53 PM 79.0 °F - 73.0 °F 82% 30.10 in 10.0 mi North 6.9 mph - N/A   Clear
11:53 PM 79.0 °F - 72.0 °F 79% 30.10 in 10.0 mi North 6.9 mph - N/A   Clear